Starlink 3640

operational
NORAD ID: 51988 Int'l Des: 2022-025 Owner: SPXS Country: US Constellation: starlink
LEOCIRCULAR

Starlink 3640について

説明を読み込み中...

リアルタイム位置

3D地球を読み込み中...

次回通過

高度履歴

Altitude vs Time

uPlot chart will show altitude changes over time

軌道要素

1 51988U 22025AJ 25354.80438168 -.00001909 00000-0 -10200-3 0 9996
2 51988 53.2174 33.2516 0001341 91.0223 269.0923 15.08809418209153
Epoch: Dec 20, 2025 • Age: 10 hours

現在のステータス

高度 539.9 km
速度 7.59 km/s
衛星直下点 7.26°N, 31.87°E
打ち上げ日 Mar 9, 2022
運用期間 3.7 years
タイプ internet

技術仕様

分類 Payload
質量 297.00 kg
乾燥質量 275.00 kg
総質量 297.00 kg
長さ 0.20 m
直径 2.80 m
スパン 9.00 m
形状 Box + pan
製造者 SPXS
バスタイプ Starlink
フェーズステータス In Orbit
所有者/国 SPXS/US

大規模コンステレーション

Loading constellations...